This is the latest recevied weather packets stored in our database for station/object W5LND-10. If no packets are shown the sender has not sent any weather packets the latest 10 day(s).
| Time | Temp. | Humidity | Pressure | Rain* | Wind** | Luminosity | Snow |
|---|---|---|---|---|---|---|---|
| 1777594583 | 17.78° C | 66% | 1010.4 hPa | 0 mm | - | 102 W/m² | - |
| 1777594283 | 17.78° C | 65% | 1010.4 hPa | 0 mm | - | 102 W/m² | - |
| 1777593983 | 17.78° C | 65% | 1010.5 hPa | 0 mm | - | 132 W/m² | - |
| 1777593686 | 17.78° C | 65% | 1010.3 hPa | 0 mm | - | 195 W/m² | - |
| 1777593383 | 17.78° C | 65% | 1010.2 hPa | 0 mm | - | 169 W/m² | - |
| 1777593084 | 17.78° C | 65% | 1010.1 hPa | 0 mm | - | 155 W/m² | - |
| 1777592783 | 18.33° C | 64% | 1010.3 hPa | 0 mm | - | 153 W/m² | - |
| 1777592486 | 18.33° C | 64% | 1010.3 hPa | 0 mm | - | 163 W/m² | - |
| 1777592183 | 18.33° C | 63% | 1010.1 hPa | 0 mm | - | 172 W/m² | - |
| 1777591883 | 18.89° C | 62% | 1010.1 hPa | 0 mm | - | 163 W/m² | - |
| 1777591584 | 18.89° C | 62% | 1010 hPa | 0 mm | - | 158 W/m² | - |
| 1777591284 | 18.89° C | 61% | 1010.2 hPa | 0 mm | - | 162 W/m² | - |
| 1777590984 | 18.89° C | 61% | 1010.4 hPa | 0 mm | - | 274 W/m² | - |
| 1777590683 | 18.89° C | 61% | 1010.2 hPa | 0 mm | - | 271 W/m² | - |
| 1777590383 | 18.89° C | 60% | 1009.9 hPa | 0 mm | - | 211 W/m² | - |
| 1777590083 | 18.89° C | 60% | 1009.7 hPa | 0 mm | - | 213 W/m² | - |
| 1777589783 | 18.89° C | 60% | 1009.8 hPa | 0 mm | - | 237 W/m² | - |
| 1777589484 | 19.44° C | 60% | 1010.1 hPa | 0 mm | - | 360 W/m² | - |
| 1777589184 | 19.44° C | 59% | 1010.3 hPa | 0 mm | - | 214 W/m² | - |
| 1777588884 | 19.44° C | 59% | 1010.6 hPa | 0 mm | - | 206 W/m² | - |
| 1777588584 | 19.44° C | 58% | 1010.6 hPa | 0 mm | - | 197 W/m² | - |
| 1777588284 | 20° C | 58% | 1010.6 hPa | 0 mm | - | 213 W/m² | - |
| 1777587984 | 20° C | 57% | 1010.5 hPa | 0 mm | - | 257 W/m² | - |
| 1777587684 | 20.56° C | 57% | 1010.4 hPa | 0 mm | - | 265 W/m² | - |
| 1777587384 | 20.56° C | 57% | 1010.3 hPa | 0 mm | - | 396 W/m² | - |
* Rain latest hour (hover to see other rain measurements)
** Current wind speed in m/s (hover to see current wind gust speed)